Eastsound, WA
on Friday, November 16, 2012

Friday
Previous Day Next Day
Daily Summary
 ActualAverage (KBLI)Record (KBLI)
Temperature
Mean Temperature °F 43°F  
Max Temperature 51°F 50°F 63°F (1976)
Min Temperature 35°F 37°F 18°F (1959)
Degree Days
Heating Degree Days 22 22  
Month to date heating degree days 323  
Cooling Degree Days 0 0  
Month to date cooling degree days 0  
Year to date cooling degree days 42  
Moisture
Dew Point 40°F   
Average Humidity 86    
Maximum Humidity 100    
Minimum Humidity 62    
Precipitation
Precipitation 0.00 in 0.21 in 1.22 in (1973)
Month to date precipitation 3.15  
Year to date precipitation 28.96  
Wind
Wind Speed 2 mph   
Max Wind Speed 15 mph   
Max Gust Speed 25 mph   
Visibility 7 miles   
Events Fog , Rain   

Key: T is trace of precipitation, MM is missing value
Source: NWS Daily Summary
Time(PST)TemperatureDew PointHumidity Pressure Visibility Wind DirectionWind SpeedGust SpeedPrecipitationEvents Conditions
12:15 AM 37.4°F 37.4°F 100% 29.93 in 4.0 miles Calm Calm - N/A   Mostly Cloudy
12:35 AM 37.4°F 37.4°F 100% 29.92 in 4.0 miles Calm Calm - N/A   Mostly Cloudy
12:55 AM 37.4°F 37.4°F 100% 29.92 in 4.0 miles Calm Calm - N/A   Scattered Clouds
1:35 AM 37.4°F 37.4°F 100% 29.92 in 4.0 miles Calm Calm - N/A   Mostly Cloudy
1:55 AM 37.4°F 37.4°F 100% 29.91 in 3.0 miles Calm Calm - N/A   Scattered Clouds
2:15 AM 35.6°F 35.6°F 100% 29.91 in 2.0 miles Calm Calm - N/A   Mostly Cloudy
2:35 AM 37.4°F 37.4°F 100% 29.91 in 0.5 miles Calm Calm - N/A Fog Fog
2:55 AM 35.6°F 35.6°F 100% 29.91 in 0.2 miles Calm Calm - N/A Fog Fog
3:15 AM 37.4°F 37.4°F 100% 29.91 in 0.2 miles Calm Calm - N/A Fog Fog
3:55 AM 37.4°F 37.4°F 100% 29.90 in 0.2 miles Calm Calm - N/A Fog Fog
4:15 AM 37.4°F 37.4°F 100% 29.90 in 0.2 miles Calm Calm - N/A Fog Fog
4:35 AM 37.4°F 37.4°F 100% 29.89 in 0.5 miles Calm Calm - N/A Fog Fog
4:55 AM 37.4°F 37.4°F 100% 29.89 in 0.5 miles Calm Calm - N/A Fog Fog
5:15 AM 37.4°F 37.4°F 100% 29.89 in 0.8 miles Calm Calm - N/A   Overcast
5:35 AM 37.4°F 37.4°F 100% 29.88 in 0.5 miles Calm Calm - N/A Fog Fog
5:55 AM 37.4°F 37.4°F 100% 29.88 in 1.2 miles Calm Calm - N/A   Mostly Cloudy
6:15 AM 37.4°F 37.4°F 100% 29.87 in 0.8 miles Calm Calm - N/A   Overcast
6:35 AM 37.4°F 37.4°F 100% 29.87 in 3.0 miles Calm Calm - N/A   Mostly Cloudy
6:55 AM 35.6°F 35.6°F 100% 29.87 in 1.8 miles Calm Calm - N/A   Clear
7:15 AM 37.4°F 37.4°F 100% 29.87 in 2.0 miles Calm Calm - N/A   Clear
7:35 AM 35.6°F 35.6°F 100% 29.87 in 4.0 miles Calm Calm - N/A   Scattered Clouds
7:55 AM 37.4°F 37.4°F 100% 29.87 in 2.5 miles Calm Calm - N/A   Mostly Cloudy
8:15 AM 37.4°F 37.4°F 100% 29.87 in 2.5 miles Calm Calm - N/A   Mostly Cloudy
8:35 AM 37.4°F 37.4°F 100% 29.88 in 3.0 miles Calm Calm - N/A   Mostly Cloudy
8:55 AM 39.2°F 39.2°F 100% 29.88 in 3.0 miles Calm Calm - N/A   Overcast
9:15 AM 41.0°F 41.0°F 100% 29.88 in 2.5 miles Calm Calm - N/A   Overcast
9:35 AM 41.0°F 41.0°F 100% 29.88 in 9.0 miles Calm Calm - N/A   Overcast
9:55 AM 41.0°F 41.0°F 100% 29.88 in 10.0 miles Calm Calm - N/A   Overcast
10:15 AM 42.8°F 41.0°F 93% 29.88 in 10.0 miles North - - N/A   Overcast
10:35 AM 42.8°F 39.2°F 87% 29.89 in 10.0 miles South 3.5 mph - N/A   Overcast
10:55 AM 44.6°F 39.2°F 81% 29.88 in 10.0 miles South 4.6 mph - N/A   Overcast
11:15 AM 44.6°F 39.2°F 81% 29.87 in 10.0 miles SSE 3.5 mph - N/A   Overcast
11:35 AM 44.6°F 39.2°F 81% 29.87 in 10.0 miles South 5.8 mph - N/A   Overcast
11:55 AM 44.6°F 39.2°F 81% 29.86 in 10.0 miles South 3.5 mph - N/A   Mostly Cloudy
12:15 PM 44.6°F 39.2°F 81% 29.85 in 10.0 miles SSE 3.5 mph - N/A   Partly Cloudy
12:35 PM 46.4°F 39.2°F 76% 29.85 in 10.0 miles SSE 4.6 mph - N/A   Partly Cloudy
12:55 PM 46.4°F 37.4°F 71% 29.84 in 10.0 miles SE 5.8 mph - N/A   Mostly Cloudy
1:15 PM 46.4°F 37.4°F 71% 29.84 in 10.0 miles SE 4.6 mph - N/A   Mostly Cloudy
1:35 PM 46.4°F 39.2°F 76% 29.83 in 10.0 miles Calm Calm - N/A   Partly Cloudy
1:55 PM 44.6°F 39.2°F 81% 29.82 in 10.0 miles Calm Calm - N/A   Mostly Cloudy
2:15 PM 44.6°F 39.2°F 81% 29.82 in 10.0 miles Calm Calm - N/A   Overcast
2:35 PM 44.6°F 39.2°F 81% 29.80 in 10.0 miles ENE 4.6 mph - N/A   Overcast
2:55 PM 46.4°F 39.2°F 76% 29.79 in 10.0 miles Calm Calm - N/A   Overcast
3:15 PM 46.4°F 39.2°F 76% 29.79 in 10.0 miles ENE 3.5 mph - N/A   Mostly Cloudy
3:35 PM 46.4°F 39.2°F 76% 29.78 in 10.0 miles Calm Calm - N/A   Partly Cloudy
3:55 PM 46.4°F 39.2°F 76% 29.78 in 10.0 miles Calm Calm - N/A   Clear
4:15 PM 46.4°F 39.2°F 76% 29.78 in 10.0 miles North - - N/A   Clear
4:55 PM 50.0°F 39.2°F 66% 29.76 in 10.0 miles Calm Calm - N/A   Clear
5:15 PM 50.0°F 39.2°F 66% 29.75 in 10.0 miles SSE 4.6 mph - N/A   Clear
5:55 PM 50.0°F 41.0°F 71% 29.72 in 10.0 miles South 9.2 mph - N/A   Mostly Cloudy
6:15 PM 51.8°F 39.2°F 62% 29.71 in 10.0 miles South 8.1 mph 18.4 mph N/A   Mostly Cloudy
6:55 PM 51.8°F 41.0°F 67% 29.71 in 10.0 miles SSE 3.5 mph - N/A   Scattered Clouds
7:15 PM 51.8°F 41.0°F 67% 29.71 in 10.0 miles SSE 4.6 mph - N/A   Mostly Cloudy
7:55 PM 50.0°F 42.8°F 76% 29.70 in 10.0 miles ENE 4.6 mph - N/A   Overcast
8:15 PM 50.0°F 42.8°F 76% 29.69 in 10.0 miles NE 8.1 mph 16.1 mph N/A   Overcast
8:35 PM 50.0°F 42.8°F 76% 29.68 in 10.0 miles West 3.5 mph - N/A   Mostly Cloudy
8:55 PM 50.0°F 44.6°F 82% 29.68 in 10.0 miles South 9.2 mph 16.1 mph N/A   Mostly Cloudy
9:15 PM 50.0°F 44.6°F 82% 29.67 in 10.0 miles SSW 12.7 mph 19.6 mph N/A   Scattered Clouds
9:35 PM 51.8°F 44.6°F 76% 29.66 in 10.0 miles South 15.0 mph 23.0 mph N/A   Clear
9:55 PM 51.8°F 44.6°F 76% 29.65 in 10.0 miles South 12.7 mph 23.0 mph N/A   Partly Cloudy
10:15 PM 51.8°F 44.6°F 76% 29.65 in 9.0 miles South 11.5 mph 17.3 mph N/A Rain Light Rain
10:35 PM 50.0°F 44.6°F 82% 29.64 in 10.0 miles South 12.7 mph 20.7 mph N/A Rain Light Rain
10:55 PM 51.8°F 44.6°F 76% 29.62 in 10.0 miles South 10.4 mph 18.4 mph N/A   Clear
11:15 PM 51.8°F 44.6°F 76% 29.62 in 10.0 miles South 12.7 mph 21.9 mph N/A   Clear
11:35 PM 51.8°F 44.6°F 76% 29.61 in 10.0 miles South 12.7 mph 25.3 mph N/A   Clear
11:55 PM 51.8°F 44.6°F 76% 29.60 in 10.0 miles South 15.0 mph 23.0 mph N/A   Clear
Moon Phase
Nov. 16 Nov. 20 Nov. 28 Dec. 06 Dec. 13
Sunrise:07:22 AM (PST) Moon Rise:10:26 AM (PST)11/16
Sunset:04:29 PM (PST) Moon Set:07:32 PM (PST)11/16

Copyright © 2014 The Weather Underground, Inc.